Flag for Germany Weather past 2 weeks in Konstanz, Baden-Württemberg, Germany

Now
38 °F

Overcast.


Feels Like: 36 °F
Forecast: 28 / 36 °F
Wind: 3 mph from West

Location: Konstanz

Current Time: Jan 31, 2015 at 2:35:34 PM

Latest Report: Jan 31, 2015 at 2:00 PM


Visibility: 28 mi

Pressure: 29.12 "Hg

Humidity: 60%

Dew point: 25 °F

Location of KonstanzLocation

Historic Weather in Konstanz — Graph

°F

Konstanz temperature yesterday

Maximum temperature yesterday: 35 °F (at 3:00 AM)
Minimum temperature yesterday: 31 °F (at 9:00 PM)
Average temperature yesterday: 34 °F

Past Weeks' High & Low Weather Summary

 TemperatureHumidityPressure
High45 °F (Jan 16, 2:00 PM)100% (Jan 27, 8:00 AM)30.47 "Hg (Jan 27, 8:00 AM)
Low30 °F (Jan 25, 8:00 AM)61% (Jan 31, 1:00 PM)28.88 "Hg (Jan 30, 12:00 AM)
Average34 °F87%29.93 "Hg
* Reported Jan 16 1:00 PM — Jan 31 1:00 PM, Konstanz, Weather by CustomWeather, © 2014

Note: Actual official high and low records may vary slightly from our data, if they occured in-between our weather recording intervals... More about our weather records

Advertising

Konstanz weather history for previous 24 hours

 ConditionsComfort  
Time TempWeatherWind HumidityBarometerVisibility
1:00 PM
Jan 31
38 °FOvercast.5 mph61%29.12 "Hg28 mi
12:00 PM37 °FOvercast.3 mph66%29.12 "Hg28 mi
11:00 AM37 °FPartly sunny.3 mph67%29.12 "Hg28 mi
10:00 AM35 °FScattered clouds.2 mph73%29.12 "Hg28 mi
9:00 AM33 °FScattered clouds.3 mph84%29.12 "Hg19 mi
8:00 AM32 °FPartly sunny.3 mph85%29.12 "Hg19 mi
7:00 AM33 °FOvercast.3 mph77%29.09 "Hg19 mi
6:00 AM33 °FOvercast.5 mph82%29.09 "Hg19 mi
5:00 AM33 °FPassing clouds.6 mph82%29.09 "Hg37 mi
4:00 AM33 °FOvercast.3 mph85%29.06 "Hg25 mi
3:00 AM33 °FOvercast.6 mph83%29.06 "Hg43 mi
2:00 AM33 °FSnow flurries. Overcast.3 mph86%29.03 "Hg34 mi
1:00 AM33 °FLight snow. Overcast.5 mph87%29.03 "Hg22 mi
12:00 AM33 °FOvercast.5 mph87%29.00 "Hg37 mi
11:00 PM
Jan 30
33 °FSnow flurries. Overcast.6 mph89%29.00 "Hg34 mi
10:00 PM32 °FSnow flurries. Overcast.6 mph89%29.00 "Hg28 mi
9:00 PM31 °FLight snow. Low clouds.2 mph94%28.97 "Hg5 mi
8:00 PM32 °FLight snow. Low clouds.2 mph89%28.97 "Hg9 mi
7:00 PM33 °FSnow flurries. Overcast.2 mph81%28.97 "Hg12 mi
6:00 PM35 °FLight snow. Overcast.5 mph72%28.97 "Hg16 mi
5:00 PM35 °FOvercast.5 mph74%28.97 "Hg16 mi
4:00 PM35 °FLight snow. Overcast.5 mph76%28.97 "Hg12 mi
3:00 PM35 °FSnow flurries. Overcast.7 mph74%28.97 "Hg16 mi
2:00 PM35 °FSnow flurries. Overcast.5 mph74%29.00 "Hg16 mi
Weather by CustomWeather, © 2014

See weather overviewHow to use our weather pages